Regional Weather Roundup
Issued by NWS

Home | Current Version | Previous Version | Graphics & Text | Print | Product List | Glossary Off
Versions: 1 2 3 4 5 6 7 8 9 10 11 12 13 14 15 16 17 18 19 20 21 22 23 24 25 26 27 28 29 30 31 32 33 34 35 36 37 38 39 40 41 42 43 44 45 46 47 48 49 50

846
ASUS43 KDMX 242106
RWRIA

WEATHER ROUNDUP FOR IOWA
NATIONAL WEATHER SERVICE DES MOINES IA
400 PM CDT MON JUL 24 2017

NOTE: "FAIR" INDICATES FEW OR NO CLOUDS BELOW 12,000 FEET WITH NO
SIGNIFICANT WEATHER AND/OR OBSTRUCTIONS TO VISIBILITY.

* - THESE STATIONS ARE NOT NWS STATIONS...THUS NOT UNDER NWS
QUALITY CONTROL.  THEY ALSO DO NOT REPORT WEATHER SUCH
AS PRECIPITATION OR FOG.

IAZ001>003-012>014-020>022-031>034-043>046-242200-
   NORTHWEST IOWA

CITY           SKY/WX    TMP DP  RH WIND       PRES   REMARKS
CARROLL *      SUNNY     79  66  65 VRB5G12   30.01S HX  81
CHEROKEE *     SUNNY     82  61  49 S14       30.00R HX  83
DENISON *      SUNNY     81  66  61 S8G14     30.01F HX  83
ORANGE CITY *  SUNNY     82  63  51 SE10      29.98F HX  83
SHELDON *      SUNNY     81  64  57 SE12G20   29.97F HX  82
SIOUX CITY     SUNNY     85  65  51 SE14      29.96F HX  86
SPENCER        SUNNY     82  61  48 S10       30.00F HX  83
STORM LAKE *   SUNNY     79  64  61 SE9G16    30.01S HX  81
$$

IAZ055>058-069>071-079>083-090>094-242200-
   SOUTHWEST IOWA

CITY           SKY/WX    TMP DP  RH WIND       PRES   REMARKS
ATLANTIC *     SUNNY     84  61  45 S7        30.00S HX  84
AUDUBON *      SUNNY     82  66  57 S6        30.02S HX  85
CLARINDA *     SUNNY     84  68  58 S7        30.02S HX  87
COUNCIL BLFS * SUNNY     82  66  57 SE9G17    29.99F HX  85
CRESTON *      SUNNY     84  59  42 VRB5      30.02S HX  84
HARLAN  *      SUNNY     82  63  51 S8        30.03S HX  83
LAMONI         SUNNY     85  63  47 SE7       30.01S HX  86
RED OAK *      SUNNY     82  66  57 SE8       30.00S HX  85
SHENANDOAH *   SUNNY     82  66  57 SE8       30.00S HX  85
$$

IAZ047>049-059>061-072>074-084-242200-
   CENTRAL IOWA

CITY           SKY/WX    TMP DP  RH WIND       PRES   REMARKS
AMES           MOSUNNY   80  65  59 SE7       30.02S HX  82
ANKENY *       SUNNY     81  61  50 CALM      30.02S HX  81
BOONE *        SUNNY     79  63  57 SE9G15    30.02S HX  80
CHARITON *     SUNNY     84  59  42 E5G12     30.00F HX  84
DES MOINES     PTSUNNY   83  61  47 SE6       30.00S HX  83
GRINNELL*      MOSUNNY   78  62  57 SE7       30.05R HX  80
KNOXVILLE *    SUNNY     82  59  44 VRB3      30.00F HX  82
MARSHALLTOWN   MOSUNNY   79  63  57 SE7       30.02S HX  80
NEWTON *       SUNNY     79  61  53 E7        30.04R HX  80
PELLA *        MOSUNNY   82  60  46 CALM      30.03S HX  82
$$

IAZ004>006-015-016-023>025-035-036-242200-
   NORTH CENTRAL IOWA

CITY           SKY/WX    TMP DP  RH WIND       PRES   REMARKS
ALGONA *       MOSUNNY   79  63  57 SE10G16   30.02S HX  80
CLARION *      MOSUNNY   79  64  61 E10       30.03S HX  81
ESTHERVILLE    SUNNY     77  63  61 SE8       30.01F
FORT DODGE *   SUNNY     81  63  54 SE10      30.02F HX  82
MASON CITY     MOSUNNY   75  61  61 SE12      30.05F
FOREST CITY *    N/A     75  61  60 SE10      30.04S
WEBSTER CITY * MOSUNNY   81  63  54 SE9       30.00F HX  82
IOWA FALLS *   PTSUNNY   79  64  59 SE6       30.05R HX  81
$$

IAZ007>011-017>019-026>030-037>042-050>054-066-242200-
   NORTHEAST IOWA

CITY           SKY/WX    TMP DP  RH WIND       PRES   REMARKS
CEDAR RAPIDS   PTSUNNY   76  66  71 E8        30.04R
CHARLES CITY * CLOUDY    73  63  68 VRB5      30.06S
DECORAH *      CLOUDY    70  59  68 VRB5      30.07R
DUBUQUE        PTSUNNY   73  60  63 E9        30.07S
MONTICELLO *   PTSUNNY   73  61  64 CALM      30.05R
OELWEIN *        N/A    N/A N/A N/A MISG        N/A
WATERLOO       PTSUNNY   75  62  64 E9        30.03S
$$

IAZ064-065-067-068-078-242200-
   EAST CENTRAL IOWA

CITY           SKY/WX    TMP DP  RH WIND       PRES   REMARKS
DAVENPORT      CLOUDY    73  63  70 NE7       30.07S
IOWA CITY      PTSUNNY   78  64  61 E8        30.05R HX  80
MT. PLEASANT * SUNNY     82  63  53 E9        30.02S HX  83
MUSCATINE *    PTSUNNY   77  64  65 E10G18    30.04R
QUAD CITIES    CLOUDY    76  63  64 E9        30.04F
$$

IAZ062-063-075>077-085>089-095>099-242200-
   SOUTHEAST IOWA

CITY           SKY/WX    TMP DP  RH WIND       PRES   REMARKS
BURLINGTON     MOSUNNY   79  67  66 NE12      30.02S HX  81
FAIRFIELD *    SUNNY     82  61  47 E8G15     30.01S HX  83
FORT MADISON * MOSUNNY   81  70  69 E9        30.02S HX  84
KEOKUK *       PTSUNNY   81  66  61 NE7G15    30.00S HX  83
OSKALOOSA *      N/A     83  63  51 SE7       30.02S HX  84
OTTUMWA        MOSUNNY   83  62  49 CALM      30.01S HX  84
WASHINGTON *   MOSUNNY   79  68  69 E10       30.03F HX  81
$$

ABBREVIATIONS USED IN REMARKS
   TC - TEMPERATURES IN CELSIUS
  WCI - WIND CHILL INDEX
   HX - HEAT INDEX
  VSB - VISIBILITY
$$





USA.gov is the U.S. government's official web portal to all federal, state and local government web resources and services.